Weather History for Big Piney, WY

Change the Weather History Date:

Wednesday, November 7, 2012

  Actual Average Record
Temperature  
Mean Temperature 39 °F 28 °F  
Max Temperature 61 °F 43 °F 64 °F (2006)
Min Temperature 17 °F 14 °F -14 °F (2003)
Degree Days  
Heating Degree Days 26 37  
Month to date heating degree days 177 245  
Since 1 July heating degree days 1307 1825  
Cooling Degree Days 0 0  
Month to date cooling degree days 0 0  
Year to date cooling degree days 67 35  
Moisture  
Dew Point 21 °F    
Average Humidity 57    
Maximum Humidity 91    
Minimum Humidity 23    
Precipitation  
Precipitation 0.00 in 0.00 in 0.03 in (2001)
Month to date precipitation 0.00 0.05  
Year to date precipitation 2.50 6.02  
Sea Level Pressure  
Sea Level Pressure 30.08 in    
Wind  
Wind Speed 4 mph (West)    
Max Wind Speed 13 mph    
Max Gust Speed 20 mph    
Visibility 10 miles    
Events      
T = Trace of Precipitation, MM = Missing Value Source: NWS Daily Summary

Daily Weather History Graph

Daily Weather History Graph

Search for Another Location

Airport:

Trip Planner

Search our weather history database for the weather conditions in past years. The results will help you decide how hot, cold, wet, or windy it might be!

Date:

Astronomy

Nov. 07, 2012 Rise Set
Actual Time 7:02 AM MST 5:05 PM MST
Civil Twilight 6:32 AM MST 5:35 PM MST
Nautical Twilight 5:58 AM MST 6:08 PM MST
Astronomical Twilight 5:25 AM MST 6:41 PM MST
Moon No Moon Rise 1:24 PM MST (11/7)
Length of Visible Light 11h 02m
Length of Day
10h 02m
Last Quarter, 42% of the Moon is Illuminated
Nov 7
Last Quarter
Nov 13
New
Nov 20
First Quarter
Nov 28
Full
Dec 6
Last Quarter

Hourly Weather History & Observations

Time (MST) Temp. Windchill Dew Point Humidity Pressure Visibility Wind Dir Wind Speed Gust Speed Precip Events Conditions
12:53 AM 24.1 °F 18.2 °F 19.0 °F 81% 30.17 in 10.0 mi East 4.6 mph - N/A   Clear
1:53 AM 24.1 °F - 19.0 °F 81% 30.15 in 10.0 mi Calm Calm - N/A   Clear
2:53 AM 21.9 °F - 18.0 °F 85% 30.14 in 10.0 mi Calm Calm - N/A   Clear
3:53 AM 19.9 °F 13.4 °F 17.1 °F 89% 30.14 in 10.0 mi NNW 4.6 mph - N/A   Clear
4:53 AM 21.9 °F - 18.0 °F 85% 30.15 in 10.0 mi Calm Calm - N/A   Clear
5:53 AM 19.0 °F - 16.0 °F 88% 30.21 in 10.0 mi Calm Calm - N/A   Clear
6:53 AM 19.0 °F - 16.0 °F 88% 30.23 in 10.0 mi Calm Calm - N/A   Clear
7:53 AM 24.1 °F - 19.9 °F 84% 30.21 in 10.0 mi Calm Calm - N/A   Clear
8:53 AM 30.0 °F 26.5 °F 21.9 °F 72% 30.20 in 10.0 mi East 3.5 mph - N/A   Clear
9:53 AM 37.0 °F 34.5 °F 25.0 °F 62% 30.16 in 10.0 mi ESE 3.5 mph - N/A   Clear
10:53 AM 42.1 °F 40.2 °F 26.1 °F 53% 30.12 in 10.0 mi South 3.5 mph - N/A   Clear
11:53 AM 48.0 °F - 27.0 °F 44% 30.05 in 10.0 mi South 5.8 mph - N/A   Clear
12:53 PM 54.0 °F - 27.0 °F 35% 30.00 in 10.0 mi South 3.5 mph - N/A   Clear
1:53 PM 57.9 °F - 25.0 °F 28% 29.95 in 10.0 mi Calm Calm - N/A   Clear
2:53 PM 61.0 °F - 23.0 °F 23% 29.93 in 10.0 mi West 12.7 mph 19.6 mph N/A   Clear
3:53 PM 59.0 °F - 21.2 °F 23% 30.03 in 10.0 mi West 13.8 mph - N/A   Clear
4:53 PM 52.0 °F - 23.0 °F 32% 29.97 in 10.0 mi West 11.5 mph - N/A   Clear
5:53 PM 42.1 °F 37.1 °F 21.9 °F 45% 30.04 in 10.0 mi WNW 8.1 mph - N/A   Clear
6:53 PM 35.1 °F 28.6 °F 21.0 °F 57% 30.08 in 10.0 mi NW 8.1 mph - N/A   Clear
7:53 PM 34.0 °F 27.2 °F 21.0 °F 59% 30.06 in 10.0 mi NW 8.1 mph - N/A   Clear
8:53 PM 37.9 °F - 21.9 °F 53% 30.01 in 10.0 mi Calm Calm - N/A   Clear
9:53 PM 37.0 °F - 21.9 °F 54% 29.97 in 10.0 mi Calm Calm - N/A   Clear
10:53 PM 28.0 °F 24.2 °F 19.9 °F 72% 29.98 in 10.0 mi NNW 3.5 mph - N/A   Clear
11:53 PM 28.9 °F - 19.9 °F 69% 29.93 in 10.0 mi Calm Calm - N/A   Clear